This demonstration page uses our WeatherBlox Daily Observations layout. Learn more.

Left ArrowRight Arrow

Hourly Observations for October 24, 2016

Temp ( °F °C ) Dew Point ( °F °C ) Humidity (%) Winds ( mph kmh ) Pressure ( in mb ) Visibility ( mi km ) Precip ( " mm )
12:53 am 00:53 Clear 64 17.8 53 11.7 68 68 ESE 9 15 30.02 1017 10 16 0.00 0.00
1:53 am 01:53 Clear 62 16.7 54 12.2 75 75 ESE 13 20 30.01 1016 10 16 0.00 0.00
2:53 am 02:53 Clear 62 16.7 55 12.8 78 78 ESE 8 13 30.01 1016 10 16 0.00 0.00
3:53 am 03:53 Clear 60 15.6 54 12.2 80 80 ESE 8 13 30.01 1016 10 16 0.00 0.00
4:53 am 04:53 Clear 58 14.4 53 11.7 84 84 E 5 7 30.02 1017 10 16 0.00 0.00
5:53 am 05:53 Clear 53 11.7 51 10.6 93 93 NNE 7 11 30.04 1017 10 16 0.00 0.00
6:53 am 06:53 Clear 51 10.6 49 9.4 92 92 NNE 6 9 30.06 1018 10 16 0.00 0.00
7:53 am 07:53 Clear 51 10.6 49 9.4 92 92 N 6 9 30.10 1019 10 16 0.00 0.00
8:53 am 08:53 Sunny 54 12.2 50 10 87 87 NNW 10 17 30.13 1020 10 16 0.00 0.00
9:53 am 09:53 Sunny 63 17.2 53 11.7 70 70 N 8 13 30.14 1021 10 16 0.00 0.00
10:53 am 10:53 Sunny 68 20 54 12.2 61 61 ENE 6 9 30.15 1021 10 16 0.00 0.00
11:53 am 11:53 Sunny 74 23.3 55 12.8 52 52 VRB 6 9 30.13 1020 10 16 0.00 0.00
12:53 pm 12:53 Sunny 78 25.6 55 12.8 45 45 E 3 6 30.11 1020 10 16 0.00 0.00
1:53 pm 13:53 Sunny 81 27.2 54 12.2 39 39 ESE 6 9 30.08 1019 10 16 0.00 0.00
2:53 pm 14:53 Sunny 84 28.9 53 11.7 34 34 undefined N/A 30.05 1018 10 16 0.00 0.00
3:53 pm 15:53 Sunny 85 29.4 53 11.7 33 33 VRB 5 7 30.03 1017 10 16 0.00 0.00
4:53 pm 16:53 Sunny 86 30 52 11.1 31 31 ESE 8 13 30.03 1017 10 16 0.00 0.00
5:53 pm 17:53 Sunny 85 29.4 51 10.6 31 31 E 8 13 30.03 1017 10 16 0.00 0.00
6:53 pm 18:53 Sunny 81 27.2 50 10 34 34 SE 8 13 30.04 1017 10 16 0.00 0.00
7:53 pm 19:53 Clear 74 23.3 50 10 43 43 SSE 7 11 30.06 1018 10 16 0.00 0.00
8:53 pm 20:53 Clear 72 22.2 50 10 46 46 SE 8 13 30.06 1018 10 16 0.00 0.00
9:53 pm 21:53 Clear 74 23.3 56 13.3 54 54 SE 14 22 30.06 1018 10 16 0.00 0.00
10:53 pm 22:53 Clear 72 22.2 57 13.9 59 59 SSE 10 17 30.08 1019 10 16 0.00 0.00
11:53 pm 23:53 Clear 70 21.1 58 14.4 66 66 SE 9 15 30.08 1019 10 16 0.00 0.00

Powered by AerisWeather